Погода в Чингисе

Россия / Новосибирская область     54°07′31″N   81°37′13″E
темп.,
°C
ветер,
м/с
пор.,
м/с
влажн.,
%
обл.,
%
осадки,
мм/ч
давл.,
гПа
погр.,
м
23 сентября, чт
чт2301:00+3з3691100 0.2 1020544
04:00+3зюз2497100 0.8 1019498
07:00+3зсз239699 1.1 1020393
10:00+4сз238388 0.1 1021552
13:00+4ссз238480 0.4 1022615
16:00+6с236794 0.3 1022911
19:00+3ссз227563 0.6 102455
22:00+1ссз22878 0.0 102414
24 сентября, пт
пт2401:000с229058 0.0 102512
04:00−1ссз22946 0.0 102630
07:00−2сз229536 0.0 102739
10:00+3зсз357348 0.0 1027418
13:00+6з5650100 0.0 10261606
16:00+6з5861100 0.1 10261351
19:00+5зюз5866100 0.1 1026671
22:00+3юз4972100 0.0 1026323
25 сентября, сб
сб2501:00+4юз51168100 0.0 1025477
04:00+4зюз61174100 0.1 1023690
07:00+3зюз5994100 0.6 1025673
10:00+3зюз5897100 0.5 1022657
13:00+2зюз4798100 2.3 1021363
16:00+3зюз3597100 1.8 1020362
19:00+3сз259499 3.1 1020543
22:00+2ссз268996 0.3 1019301
26 сентября, вс
вс2601:00−1с369789 0.3 1018166
04:000с4689100 0.1 1018552
07:00−2ссз489688 0.1 1019297
10:00+1ссз578590 0.0 1020671
13:00+1ссз5777100 0.1 1020949
16:00+2ссз5874100 0.0 10211124
19:00+1сз6128456 0.0 1022699
22:00+1ссз61297100 1.1 1022785
27 сентября, пн
пн2701:00+2с61091100 1.6 1022605
04:00+2с4896100 0.1 1023515
07:00+2ссв4898100 0.1 1024524
10:00+2св4898100 0.0 1025444
13:00+4всв478697 0.1 1025766
16:00+5всв5776100 0.1 10251060
19:00+4всв4784100 0.1 1026506
22:00+3св41089100 0.0 1026700